Location: Trois-Rivi�res
(46.3500°N, 72.5500°W)
Time: 21:30:56
(UTC-05:00)

N. Korean satellite - Pass Details

Date: 10 October 2017
Orbit: 461 x 513 km, 97.2° (Epoch: 13 December)

Event Time Altitude Azimuth Distance (km) Brightness Sun altitude
Rises 19:25:45 0° 190° (S) 2,561 10.3 -13.5°
Reaches altitude 10° 19:28:01 10° 202° (SSW) 1,675 9.5 -13.9°
Maximum altitude 19:31:12 29° 264° (W) 913 8.8 -14.4°
Drops below altitude 10° 19:34:21 10° 326° (NW) 1,661 9.8 -14.9°
Sets 19:36:36 0° 338° (NNW) 2,536 10.6 -15.3°
